User: anonymous   Login
Location: Harwich
(41.6860°N, 70.0760°W)
Time: 12:33:37
(UTC-04:00)
Language:

Cosmos 2173 Rocket - Orbit

View from above orbital plane
View from above orbital plane
View from above satellite
View from above satellite

Ground track
Ground track

The orbit data is extracted from the following two-line orbital elements,

1 21797U 91081B   17147.95227715 +.00000025 +00000-0 +91780-5 0  9990
2 21797 082.9553 077.2224 0038713 143.3854 287.6615 13.77396623281344
Epoch (UTC): 27 May 2017 22:51:16
Eccentricity: 0.0038713
inclination: 82.9553°
perigee height: 944 km
apogee height: 1001 km
right ascension of ascending node: 77.2224°
argument of perigee: 143.3854°
revolutions per day: 13.77396623
mean anomaly at epoch: 287.6615°
orbit number at epoch: 28134

The dashed part of the orbit path shows where the satellite is in the earth's shadow,  

DLR